Showing default

COSMOS 1997, 19788

Orbit data source: Space-Track

COSMOS 1997, 19788 is a payload satellite owned by UNKS (CIS) in LEO that was launched on Fri, 10 Feb 1989 UTC via a TSIKLON-3 launch vehicle from the Plesetsk Missile And Space Complex (PKMTR). Payload-class satellites include a variety of spacecraft equipped with specific instruments for various scientific and technological missions. These include communications satellites like Starlink; space stations such as the ISS; scientific satellites like the Hubble; Earth observation satellites from companies like Planet Labs, Umbra, and HawkEye 360; GPS; miniature CubeSats for education and research; and military/defense satellites.

Loading next visibility...
Identifier
19788, 1989-009D
Orbit
LEO
Country
Flag of CISCIS
Related business
Manufacturer
NPO PM
Mission
Defense Communications
Bus & Motor
STRELA-3, Unknown motor
Mass
225 kg wet, 225 kg dry
Launch date (UTC)
1989-02-10 (38 years ago)
Launch vehicle
TSIKLON-3
Launch site
Plesetsk Missile And Space Complex (PKMTR)
Object type
Payload
Rocket body
Debris
Shape & HBR
Cyl, 0.9 m
Radar Cross Section
1.257 m², Large (>1 m²)

Expand to show TLE details & history
Last TLE update: 22 hours ago

TLE from 22 hours ago
0 COSMOS 1997
1 19788U 89009D   26262.12752293  .00000012  00000-0  41119-5 0  9992
2 19788  82.6181 300.9805 0010529 126.4087 241.9091 12.63691178734375
Epoch: 2026-09-19T03:03Z
TLE epoch observation values (Epoch: 2026-09-19T03:03:37.981Z)
Latitude
8.08078°
Longitude
-101.9195°
Altitude
1,413.665 km
Speed
7.152 km/s
True Right ascension
20h 08m 07s
True Declination
8° 02' 13"
Sunlit
Object was in partial shadow at epoch
Visualization orbit readout
Latitude
Unknown
Longitude
Unknown
Altitude
Unknown
Speed
Unknown
Apparent Right ascension
Unknown
Apparent Declination
Unknown
Sunlit
N/A
Visualization observer readout
Local Sidereal Time
18:23:11
Azimuth
Unknown
Elevation
Unknown
Doppler factor
Unknown
Orbital elements
Apogee altitude
1,413.258 km
Perigee altitude
1,396.868 km
Semi-major axis
7,783.2 km
Eccentricity
0.00105
Inclination
82.6181°
RAAN
300.9805°
Arg. of periapsis
126.4087°
True anomaly
241.80273°
Mean anomaly
241.9091°
Eccentric anomaly
241.85591°
Mean motion
3.16086 °/min
Orbital period
113.89 mins
BSTAR
0.0000041119
Loading maneuver chart data...
Computing Atmospheric mass density...
Loading historical data...
Loading historical data...
Loading historical data...
Loading historical data...
Loading historical data...
Loading historical data...
Loading historical data...

Documentation

Showing up to 5 results
|